When you browse on this site, cookies collect data to enhance your experience and personalize the content and advertising you see.
Visit our Privacy Policy to learn more. By continuing to use the site, you agree to this use of cookies and data.
  • In Hungary
  • List of Countries
  • For 7 days
  • Water Temperature
  • Weather Map
  • News
  • Weather Widgets
  • user-avatar
    Login

    Hourly Weather Varennes

    Today, 14 November, Thursday

    Time Temperature Precipitation Wind Pressure Humidity
    00:00 -14°C° 0 mm 2 mps 771 mmHg 93%
    01:00 -14°C° 0 mm 2 mps 771 mmHg 93%
    02:00 -13°C° 0 mm 2 mps 771 mmHg 93%
    03:00 -13°C° 0 mm 2 mps 770 mmHg 92%
    04:00 -13°C° 0 mm 2 mps 770 mmHg 92%
    05:00 -12°C° 0 mm 2 mps 770 mmHg 91%
    06:00 -12°C° 0 mm 2 mps 770 mmHg 90%
    07:00 -12°C° 0 mm 2 mps 770 mmHg 90%
    08:00 -10°C° 0 mm 3 mps 769 mmHg 89%
    09:00 -10°C° 0 mm 4 mps 769 mmHg 89%
    10:00 -9°C° 0 mm 4 mps 769 mmHg 89%
    11:00 -8°C° 0.4 mm 5 mps 768 mmHg 91%
    12:00 -7°C° 0.4 mm 5 mps 767 mmHg 93%
    13:00 -8°C° 0.4 mm 6 mps 767 mmHg 95%
    14:00 -6°C° 0.2 mm 5 mps 766 mmHg 94%
    15:00 -6°C° 0.2 mm 5 mps 766 mmHg 93%
    16:00 -6°C° 0.2 mm 5 mps 765 mmHg 92%
    17:00 -5°C° 0.1 mm 4 mps 765 mmHg 91%
    18:00 -5°C° 0.1 mm 4 mps 765 mmHg 90%
    19:00 -5°C° 0.1 mm 4 mps 765 mmHg 90%
    20:00 -5°C° 0.1 mm 4 mps 765 mmHg 90%
    21:00 -4°C° 0.1 mm 4 mps 764 mmHg 90%
    22:00 -4°C° 0.1 mm 4 mps 764 mmHg 91%
    23:00 -4°C° 0.1 mm 4 mps 763 mmHg 92%

    Tomorrow, 15 November, Friday

    Time Temperature Precipitation Wind Pressure Humidity
    00:00 -4°C° 0.1 mm 4 mps 763 mmHg 93%
    01:00 -4°C° 0.1 mm 4 mps 763 mmHg 95%
    02:00 -4°C° 0.3 mm 4 mps 762 mmHg 95%
    03:00 -4°C° 0.3 mm 4 mps 762 mmHg 94%
    04:00 -5°C° 0.3 mm 5 mps 761 mmHg 94%
    05:00 -5°C° 0.5 mm 5 mps 760 mmHg 94%
    06:00 -4°C° 0.5 mm 6 mps 760 mmHg 93%
    07:00 -4°C° 0.5 mm 7 mps 760 mmHg 92%
    08:00 -3°C° 0.1 mm 7 mps 759 mmHg 91%
    09:00 -4°C° 0.1 mm 8 mps 759 mmHg 90%
    10:00 -4°C° 0.1 mm 8 mps 759 mmHg 88%
    11:00 -4°C° 0 mm 8 mps 759 mmHg 89%
    12:00 -2°C° 0 mm 8 mps 759 mmHg 90%
    13:00 -2°C° 0 mm 8 mps 758 mmHg 91%
    14:00 -3°C° 0.1 mm 7 mps 759 mmHg 88%
    15:00 -3°C° 0.1 mm 6 mps 760 mmHg 85%
    16:00 -4°C° 0.1 mm 5 mps 760 mmHg 82%
    17:00 -6°C° 0 mm 5 mps 762 mmHg 80%
    18:00 -10°C° 0 mm 6 mps 763 mmHg 79%
    19:00 -12°C° 0 mm 6 mps 765 mmHg 78%
    20:00 -14°C° 0 mm 5 mps 767 mmHg 79%
    21:00 -15°C° 0 mm 4 mps 768 mmHg 80%
    22:00 -16°C° 0 mm 3 mps 770 mmHg 81%
    23:00 -16°C° 0 mm 3 mps 771 mmHg 82%

    Day after tomorrow, 16 November, Saturday

    Time Temperature Precipitation Wind Pressure Humidity
    00:00 -16°C° 0 mm 2 mps 772 mmHg 83%
    01:00 -16°C° 0 mm 2 mps 772 mmHg 84%
    02:00 -16°C° 0 mm 2 mps 773 mmHg 86%
    03:00 -17°C° 0 mm 2 mps 773 mmHg 87%
    04:00 -17°C° 0 mm 2 mps 774 mmHg 88%
    05:00 -17°C° 0 mm 2 mps 774 mmHg 89%
    06:00 -17°C° 0 mm 2 mps 775 mmHg 89%
    07:00 -18°C° 0 mm 2 mps 776 mmHg 89%
    08:00 -16°C° 0 mm 2 mps 776 mmHg 88%
    09:00 -15°C° 0 mm 2 mps 776 mmHg 87%
    10:00 -13°C° 0 mm 2 mps 777 mmHg 86%
    11:00 -12°C° 0 mm 2 mps 776 mmHg 86%
    12:00 -12°C° 0 mm 2 mps 776 mmHg 85%
    13:00 -12°C° 0 mm 3 mps 776 mmHg 85%
    14:00 -10°C° 0 mm 2 mps 776 mmHg 87%
    15:00 -12°C° 0 mm 2 mps 775 mmHg 89%
    16:00 -12°C° 0 mm 2 mps 775 mmHg 91%
    17:00 -13°C° 0 mm 2 mps 775 mmHg 90%
    18:00 -14°C° 0 mm 2 mps 776 mmHg 90%
    19:00 -14°C° 0 mm 2 mps 776 mmHg 90%
    20:00 -13°C° 0 mm 1 mps 776 mmHg 90%
    21:00 -13°C° 0 mm 1 mps 776 mmHg 90%
    22:00 -14°C° 0 mm 1 mps 776 mmHg 90%
    23:00 -14°C° 0 mm 1 mps 775 mmHg 89%

    17 November, Sunday

    Time Temperature Precipitation Wind Pressure Humidity
    00:00 -14°C° 0 mm 1 mps 775 mmHg 89%
    01:00 -14°C° 0 mm 1 mps 774 mmHg 88%
    02:00 -14°C° 0 mm 1 mps 774 mmHg 89%
    03:00 -14°C° 0 mm 1 mps 774 mmHg 89%
    04:00 -16°C° 0 mm 2 mps 773 mmHg 89%
    05:00 -16°C° 0 mm 2 mps 773 mmHg 89%
    06:00 -16°C° 0 mm 2 mps 773 mmHg 90%
    07:00 -17°C° 0 mm 2 mps 772 mmHg 90%
    08:00 -15°C° 0 mm 2 mps 772 mmHg 89%
    09:00 -14°C° 0 mm 2 mps 771 mmHg 88%
    10:00 -12°C° 0 mm 2 mps 771 mmHg 87%
    11:00 -10°C° 0 mm 2 mps 770 mmHg 87%
    12:00 -9°C° 0 mm 2 mps 769 mmHg 86%
    13:00 -8°C° 0 mm 2 mps 769 mmHg 86%
    14:00 -9°C° 0 mm 2 mps 768 mmHg 88%
    15:00 -8°C° 0 mm 1 mps 768 mmHg 89%
    16:00 -9°C° 0 mm 1 mps 768 mmHg 91%
    17:00 -9°C° 0 mm 1 mps 767 mmHg 91%
    18:00 -12°C° 0 mm 2 mps 767 mmHg 91%
    19:00 -12°C° 0 mm 2 mps 767 mmHg 91%
    20:00 -12°C° 0 mm 2 mps 766 mmHg 92%
    21:00 -12°C° 0 mm 2 mps 766 mmHg 92%
    22:00 -12°C° 0 mm 2 mps 766 mmHg 93%
    23:00 -12°C° 0 mm 2 mps 765 mmHg 93%

    18 November, Monday

    Time Temperature Precipitation Wind Pressure Humidity
    00:00 -12°C° 0 mm 2 mps 765 mmHg 93%
    01:00 -13°C° 0 mm 2 mps 765 mmHg 93%
    02:00 -13°C° 0 mm 2 mps 764 mmHg 93%
    03:00 -13°C° 0 mm 2 mps 764 mmHg 94%
    04:00 -13°C° 0 mm 2 mps 764 mmHg 94%
    05:00 -13°C° 0 mm 2 mps 764 mmHg 94%
    06:00 -13°C° 0 mm 2 mps 763 mmHg 94%
    07:00 -13°C° 0 mm 2 mps 763 mmHg 93%
    08:00 -12°C° 0 mm 2 mps 763 mmHg 93%
    09:00 -9°C° 0 mm 2 mps 763 mmHg 92%
    10:00 -8°C° 0 mm 2 mps 762 mmHg 91%
    11:00 -7°C° 0 mm 2 mps 762 mmHg 90%
    12:00 -6°C° 0 mm 2 mps 761 mmHg 89%
    13:00 -5°C° 0 mm 2 mps 761 mmHg 89%
    14:00 -4°C° 0 mm 1 mps 761 mmHg 90%
    15:00 -4°C° 0 mm 1 mps 760 mmHg 91%
    16:00 -6°C° 0 mm 1 mps 760 mmHg 93%
    17:00 -6°C° 0 mm 1 mps 760 mmHg 92%
    18:00 -6°C° 0 mm 1 mps 761 mmHg 92%
    19:00 -6°C° 0 mm 0 mps 761 mmHg 91%
    20:00 -6°C° 0 mm 1 mps 761 mmHg 92%
    21:00 -6°C° 0 mm 1 mps 760 mmHg 92%
    22:00 -6°C° 0 mm 1 mps 760 mmHg 92%
    23:00 -6°C° 0 mm 1 mps 760 mmHg 92%

    19 November, Tuesday

    Time Temperature Precipitation Wind Pressure Humidity
    00:00 -4°C° 0 mm 1 mps 760 mmHg 93%
    01:00 -4°C° 0 mm 1 mps 760 mmHg 93%
    02:00 -4°C° 0 mm 1 mps 760 mmHg 93%
    03:00 -4°C° 0 mm 1 mps 760 mmHg 93%
    04:00 -4°C° 0 mm 1 mps 760 mmHg 93%
    05:00 -4°C° 0 mm 1 mps 760 mmHg 93%
    06:00 -4°C° 0 mm 1 mps 760 mmHg 93%
    07:00 -4°C° 0 mm 1 mps 760 mmHg 93%
    08:00 -3°C° 0 mm 1 mps 760 mmHg 93%
    09:00 -2°C° 0 mm 1 mps 760 mmHg 92%
    10:00 -3°C° 0 mm 2 mps 760 mmHg 92%
    11:00 -2°C° 0 mm 2 mps 760 mmHg 94%
    12:00 -2°C° 0 mm 2 mps 760 mmHg 97%
    13:00 -1°C° 0 mm 2 mps 759 mmHg 99%
    14:00 -1°C° 0 mm 2 mps 759 mmHg 98%
    15:00 -1°C° 0 mm 2 mps 759 mmHg 97%
    16:00 -1°C° 0 mm 2 mps 760 mmHg 97%
    17:00 -1°C° 0 mm 2 mps 760 mmHg 96%
    18:00 -1°C° 0 mm 2 mps 760 mmHg 96%
    19:00 -1°C° 0 mm 2 mps 760 mmHg 95%
    20:00 -1°C° 0 mm 2 mps 760 mmHg 95%
    21:00 -1°C° 0 mm 2 mps 761 mmHg 95%
    22:00 +2°C° 0 mm 1 mps 761 mmHg 95%
    23:00 +1°C° 0 mm 1 mps 761 mmHg 95%
    Show more